Regional Weather Roundup
Issued by NWS

Home | Current Version | Previous Version | Text Only | Print | Product List | Glossary Off
Versions: 1 2 3 4 5 6 7 8 9 10 11 12 13 14 15 16 17 18 19 20 21 22 23 24 25 26 27 28 29 30 31 32 33 34 35 36 37 38 39 40 41 42 43 44 45

000
ASUS45 KPSR 292210
RWRAZ

ARIZONA REGIONAL HOURLY WEATHER ROUNDUP
NATIONAL WEATHER SERVICE TUCSON AZ
300 PM MST MON MAY 29 2017

NOTE: FAIR INDICATES FEW OR NO CLOUDS BELOW 12,000 FEET WITH NO
SIGNIFICANT WEATHER AND/OR OBSTRUCTIONS TO VISIBILITY.

AZZ001>003-036-292300-
NORTHWEST ARIZONA

CITY           SKY/WX    TMP DP  RH WIND       PRES   REMARKS
BULLHEAD CITY  PTSUNNY  106  19   4 SW10      29.71F
KINGMAN        MOSUNNY   95  25   8 S17G23    29.89F
$$

AZZ004>008-015-016-018-292300-
NORTH CENTRAL ARIZONA

CITY           SKY/WX    TMP DP  RH WIND       PRES   REMARKS
GRAND CANYON   MOSUNNY   75  18  11 NE9G16    30.16F
WILLIAMS       PTCLDY    73  21  14 SE8       30.15F
PRESCOTT       SUNNY     84  16   8 CALM      30.02F
FLAGSTAFF      MOSUNNY   74  20  13 W5        30.16F
PAYSON         CLEAR     86  12   6 SW8G17    30.06F
PAGE           SUNNY     89  18   7 N10G20    30.00F
$$

AZZ009>014-017-292300-
NORTHEAST ARIZONA

CITY           SKY/WX    TMP DP  RH WIND       PRES   REMARKS
WINSLOW        MOSUNNY   88  23   9 W8        30.02F
SAINT JOHNS    CLOUDY    80  26  13 S17G26    30.07F
WINDOW ROCK    MOSUNNY   79  21  11 NW8       30.15F
SHOW LOW       PTSUNNY   77  19  11 SW12G20   30.13F
$$

AZZ023-292300-
GREATER PHOENIX AREA

CITY           SKY/WX    TMP DP  RH WIND       PRES   REMARKS
PHOENIX        PTSUNNY  102  20   5 W6        29.73F
BUCKEYE        MOCLDY   100  16   5 NW3       29.75F
GLENDALE       PTSUNNY  102  19   5 SE6       29.76F
DEER VALLEY    MOSUNNY  101  12   4 S13       29.76F
SCOTTSDALE     MOSUNNY  101  17   5 W8        29.77F
MESA-GATEWAY   PTSUNNY  100  25   7 NW6       29.76F
CHANDLER       SUNNY    100  21   6 W6        29.75F
$$

AZZ027-028-292300-
SOUTHWEST MARICOPA COUNTY AND PINAL COUNTY

CITY           SKY/WX    TMP DP  RH WIND       PRES   REMARKS
CASA GRANDE    CLOUDY    99  22   6 CALM      29.77F
$$

AZZ503-504-507>509-292300-
SOUTHEAST ARIZONA

CITY           SKY/WX    TMP DP  RH WIND       PRES   REMARKS
TUCSON         PTSUNNY   98   8   3 SW8       29.83F
RYAN FIELD     CLEAR     99  12   4 CALM      29.82F
NOGALES        MOSUNNY   93  15   6 S7        29.93F
SIERRA VISTA   MOSUNNY   90  10   5 SE6       29.98F
DOUGLAS        MOSUNNY   92  14   5 W8        29.94F
SAFFORD        MOSUNNY   97  24   7 SW12G18   29.85F
$$

AZZ020-021-025-026-031-292300-
SOUTHWEST ARIZONA

CITY           SKY/WX    TMP DP  RH WIND       PRES   REMARKS
YUMA           MOSUNNY  103  29   7 W9        29.71F
$$

CAZ031-033-041-043-047-048-061-292300-
SOUTHERN CALIFORNIA

CITY           SKY/WX    TMP DP  RH WIND       PRES   REMARKS
DOWNTOWN L.A.  NOT AVBL
L.A. AIRPORT   MOSUNNY   65  55  70 W15       29.90F
SAN DIEGO      CLOUDY    65  57  75 W7        29.93F
BURBANK        MOSUNNY   76  55  48 S12       29.87F
ONTARIO        PTSUNNY   80  52  37 SW9       29.87F
RIVERSIDE      SUNNY     82  55  39 W8        29.87F
PALM SPRINGS   MOSUNNY  106  21   5 E14       29.72F
EL CENTRO NAS  CLOUDY   102  25   6 E6        29.70F
IMPERIAL       CLOUDY   103  34   9 SE7       29.69F
BLYTHE         MOSUNNY  103  17   4 SE6       29.71F
NEEDLES        MOSUNNY  107   7   2 VRB3      29.72F
$$

NVZ020-UTZ003-292300-
SOUTHERN NEVADA-UTAH

CITY           SKY/WX    TMP DP  RH WIND       PRES   REMARKS
LAS VEGAS      MOSUNNY   98  11   4 VRB3      29.82F
SALT LAKE CITY MOSUNNY   83  36  18 NW3       30.07F
$$

NMZ009-TXZ055-292300-
NEW MEXICO-WEST TEXAS

CITY           SKY/WX    TMP DP  RH WIND       PRES   REMARKS
ALBUQUERQUE    CLOUDY    75  31  19 NW30G38   30.16R
EL PASO        MOSUNNY   88  33  14 E10G21    29.97F
$$


........................KEY........................
SKY/WX - SKY CONDITION/WEATHER
TMP    - TEMPERATURE IN FAHRENHEIT
DP     - DEWPOINT IN FAHRENHEIT
RH     - RELATIVE HUMIDITY IN PERCENT
WIND   - DIRECTION AND SPEED IN MILES PER HOUR (MPH)
VRB    - VARIABLE WIND DIRECTION
PRES   - MEAN SEA LEVEL PRESSURE IN INCHES OF MERCURY
         F - FALLING PRESSURE   R - RISING PRESSURE
         S - STEADY PRESSURE
VSB    - VISIBILITY IN MILES
HX     - HEAT INDEX IN FAHRENHEIT
WCI    - WIND CHILL INDEX IN FAHRENHEIT
TC     - TEMPERATURE IN CELSIUS WHICH IS ALSO KNOWN AS
         TEMPERATURE IN CENTIGRADE
AFB    - AIR FORCE BASE
         LUKE AFB IS LUKE AIR FORCE BASE
         DAVIS-MONTHAN IS DAVIS-MONTHAN AIR FORCE BASE
NAS    - NAVAL AIR STATION
         EL CENTRO NAS IS EL CENTRO NAVAL AIR STATION
N/A    - NOT AVAILABLE





USA.gov is the U.S. government's official web portal to all federal, state and local government web resources and services.